Погода в Кургане

Россия / Калужская область     53°26′55″N   34°43′09″E
темп.,
°C
ветер,
м/с
пор.,
м/с
влажн.,
%
обл.,
%
осадки,
мм/ч
давл.,
гПа
погр.,
м
30 ноября, вт
вт3000:00+8юв41197100 7.0 974461
03:00+6зюз81691100 10.6 9761200
06:00+4юз101689100 0.3 9791353
09:00+1юз91795100 0.6 9811283
12:000юз112089100 0.9 9811583
15:00−1зюз101988100 1.9 9831534
18:00−2зюз101888100 0.8 9871341
21:00−2зюз81578100 0.9 9901276
1 декабря, ср
ср100:00−2зюз6128298 0.0 9911033
03:00−2зюз6108299 0.1 993952
06:00−2зюз6976100 0.1 993976
09:00−2зюз5984100 0.1 9941106
12:00−1зюз5977100 0.1 9941046
15:00−1з4872100 0.1 9951106
18:00−3з5108093 0.0 997850
21:00−5зсз598093 0.1 999855
2 декабря, чт
чт200:00−5з488499 0.0 1001627
03:00−5зюз3687100 0.0 1003452
06:00−4ююз3988100 0.0 1003407
09:00−3ю51178100 0.0 1001551
12:00−2ю61495100 1.2 999597
15:000ююз61497100 2.6 998693
18:00+1юз51398100 0.4 999616
21:00+2юз51398100 0.5 1000590
3 декабря, пт
пт300:00+2юз51395100 0.0 1002537
03:00+2юз41194100 0.0 1003515
06:00−1ююз399767 0.0 1004219
09:00−1ю3798100 0.0 1005144
12:00+1юв3897100 0.5 1004255
15:00+3ю51491100 0.6 1001670
18:00+4ююз61493100 0.3 999874
21:00+3зюз51197100 2.8 999718
4 декабря, сб
сб400:000зсз51196100 2.1 1003642
03:00−1з4991100 2.3 1007566
06:00−2з368736 0.0 1009424
09:00−4юз37935 0.0 1012261
12:00−2юз4684100 0.0 1012598
15:00−1ююз36795 0.0 1012476
18:00−3ююз279131 0.0 1012187
21:00−3ююз26925 0.0 1013179